Wind_Speed
4 4 3 3 3 4 4 4 4 4 4 4 4 5 5 6 6 6 6 6 6 6 6 6 7 7 7 7 7 6 6 6 5 6 6 7 7 7 7 7 7 7 7 8 8 9 9 9 10
4 4 4 4 3 3 4 4 5 5 5 5 6 6 6 6 7 7 7 7 7 7 7 7 7 7 7 8 8 7 7 7 6 7 7 7 8 8 7 7 8 9 9 9 9 9 10 10 10
5 5 4 4 4 3 4 5 6 6 5 6 7 6 7 7 7 8 8 8 8 8 8 8 8 8 8 9 9 8 9 8 8 8 8 8 8 9 8 9 9 10 10 10 10 10 9 10 10
5 5 5 5 5 4 5 6 7 7 7 7 7 7 8 7 8 9 9 9 9 9 9 9 10 9 9 9 9 9 9 9 9 9 9 9 9 9 10 10 10 10 10 10 10 10 10 10 10
6 6 5 5 5 6 7 7 6 7 7 8 8 7 8 8 9 9 9 9 9 9 10 11 11 11 10 10 10 9 9 9 9 9 9 9 9 10 10 11 11 11 11 11 10 11 10 10 11
7 7 7 7 6 7 7 7 7 7 7 8 8 8 9 9 10 10 10 10 11 11 11 12 11 10 10 10 10 10 10 10 10 10 10 9 9 10 11 11 12 11 11 11 11 11 11 11 11
8 7 8 8 8 8 8 8 8 9 9 9 9 10 10 10 10 10 10 11 11 11 11 10 10 9 8 9 10 10 10 10 10 10 9 9 10 11 11 12 13 13 13 12 11 12 12 12 11
8 9 9 9 10 10 9 9 9 9 9 10 10 10 10 10 10 10 10 10 10 10 9 8 8 9 9 9 9 10 10 10 10 10 10 10 11 11 12 12 13 14 14 14 13 12 12 11 11
9 9 10 10 10 11 10 10 10 10 11 10 10 11 11 11 11 11 11 10 10 10 9 9 9 9 9 10 10 10 10 11 11 11 11 12 12 12 12 12 13 14 14 14 14 13 13 12 12
9 10 10 10 10 11 10 11 11 11 11 11 12 12 11 11 11 11 11 10 10 10 10 9 9 9 9 10 10 10 11 11 12 12 12 12 12 13 13 13 13 13 14 14 14 14 14 14 14
10 10 11 11 11 12 12 12 12 12 12 12 12 11 12 12 12 11 11 11 10 11 11 10 10 10 10 10 11 11 11 12 12 12 13 13 13 13 14 14 14 14 15 15 14 15 15 15 15
10 10 11 11 12 12 13 13 13 13 13 12 12 11 12 11 12 12 12 11 11 11 11 11 11 11 11 11 11 11 12 12 13 13 13 13 13 14 15 15 15 15 15 15 15 15 16 16 16
10 10 11 11 12 12 12 13 13 13 12 12 12 12 12 12 12 12 12 12 12 12 12 12 12 12 12 12 12 12 12 12 13 13 13 13 14 15 15 15 15 15 15 15 15 15 15 16 16
10 10 10 10 10 11 11 12 12 12 12 12 12 11 11 12 12 12 12 12 12 12 13 13 13 13 13 13 13 13 13 13 14 14 14 15 15 15 16 16 16 15 15 15 15 14 14 15 15
9 9 9 9 9 9 9 9 11 11 11 11 12 12 12 12 12 12 12 12 12 12 13 14 14 14 14 14 13 13 13 14 14 14 15 15 15 15 15 15 14 15 15 15 15 15 15 14 15
8 8 8 8 9 9 9 9 9 10 11 11 12 12 12 12 12 12 11 11 12 12 12 13 14 14 14 14 14 14 14 15 15 15 15 16 16 15 15 14 13 13 14 15 15 15 15 15 15
8 8 9 9 9 10 10 9 9 11 11 11 12 12 12 11 11 11 11 11 11 12 12 13 14 14 15 15 15 15 15 15 15 16 17 17 17 16 15 14 14 14 14 14 14 15 15 15 15
8 9 10 10 10 10 11 10 11 12 12 12 12 12 12 11 11 12 12 12 12 13 13 14 14 14 15 15 15 15 15 15 15 16 16 17 17 16 16 15 15 15 14 14 14 14 14 14 15
10 10 11 11 10 11 11 11 11 12 12 12 12 13 13 12 13 12 13 13 13 14 14 14 15 14 15 15 15 16 16 16 16 17 17 17 17 16 16 16 16 15 15 15 15 15 16 15 16
11 11 12 12 11 12 12 12 12 11 11 11 12 13 13 13 13 13 13 14 14 15 15 15 15 15 15 15 16 16 16 16 17 17 17 17 16 15 15 15 16 16 16 16 16 15 15 16 16
11 11 12 13 12 12 13 13 12 12 12 12 12 13 13 13 13 13 14 14 14 15 15 16 15 15 15 15 16 16 17 18 17 17 17 16 16 15 16 16 16 16 16 16 16 16 15 15 16
12 12 12 14 14 12 12 12 12 13 13 13 13 14 14 14 14 14 15 15 16 16 16 17 16 16 16 17 17 17 18 18 18 17 17 17 17 17 17 17 17 17 16 17 17 17 16 17 17
12 12 12 12 12 11 10 12 12 14 14 14 14 14 15 15 16 16 17 17 17 17 18 18 17 18 18 19 19 18 18 18 18 18 18 17 17 17 17 18 18 18 17 17 17 18 18 18 19
12 12 11 11 11 11 11 13 14 15 15 14 14 15 15 16 16 17 17 17 18 18 18 18 19 19 19 19 19 19 19 18 18 18 17 17 17 18 18 18 19 19 19 19 19 19 19 19 19
11 11 11 11 11 12 13 14 16 15 15 16 16 16 16 17 17 18 18 18 19 19 19 19 19 19 19 19 19 19 19 18 18 19 19 19 19 19 19 19 19 20 20 20 20 20 21 21 21
12 12 12 13 13 13 14 16 17 16 17 17 17 17 18 18 19 19 19 19 19 19 19 20 20 20 20 19 20 20 20 20 20 20 20 20 19 20 20 19 20 20 21 21 21 22 22 22 21
12 12 12 14 14 14 15 17 18 18 18 18 18 18 19 19 20 20 20 20 20 20 20 20 21 20 20 20 20 21 21 21 21 21 21 21 21 21 21 20 20 20 21 21 21 22 21 22 22
13 13 12 13 14 14 14 17 19 18 19 19 20 19 19 20 21 21 21 22 21 21 21 21 21 21 21 21 21 21 22 22 22 22 22 22 23 23 23 22 22 22 22 22 22 22 21 22 22
13 13 13 14 15 15 16 18 20 21 22 22 22 22 22 22 22 22 22 22 22 22 22 22 22 22 22 23 23 22 22 23 23 23 24 24 24 24 23 23 24 23 23 22 22 22 22 22 22
14 15 14 15 15 17 18 21 22 22 22 23 23 23 23 23 23 23 23 23 23 23 23 23 23 23 23 23 23 23 23 23 23 24 24 24 25 25 25 25 24 24 24 24 23 23 23 22 22
Wind_Direction
212 214 217 218 206 206 210 222 224 229 230 233 238 243 242 240 246 254 255 253 255 255 253 251 252 254 257 259 267 277 276 267 264 256 250 250 252 253 251 254 257 259 261 261 262 265 268 270 270
211 217 221 222 224 218 219 226 230 234 234 238 243 246 249 251 253 259 260 261 259 259 259 259 257 258 262 264 268 273 272 273 268 261 258 256 256 258 259 257 259 260 263 264 269 269 270 272 272
208 215 222 226 233 231 242 245 238 240 245 247 249 249 249 249 255 259 263 266 267 267 266 264 260 260 265 269 269 270 272 271 271 268 263 262 263 264 263 262 264 263 263 267 271 272 272 272 276
219 225 231 234 238 244 252 254 250 245 247 248 252 252 251 252 257 260 261 265 268 270 270 267 264 262 263 269 271 269 270 270 271 270 267 265 263 268 267 264 266 265 265 271 273 274 274 278 283
232 231 239 247 246 250 257 259 261 254 249 248 250 256 257 255 260 260 261 266 270 273 272 269 267 263 260 265 269 268 268 271 271 272 272 268 267 270 271 270 270 268 268 271 272 277 276 280 282
238 239 243 251 252 257 260 260 263 262 262 260 257 260 264 259 261 262 262 267 270 273 275 272 267 261 258 261 264 266 267 271 273 273 272 271 270 272 273 273 271 270 272 274 275 275 275 279 280
245 243 250 254 254 258 263 261 262 262 264 267 266 267 267 267 265 263 265 270 271 273 274 271 266 256 255 259 263 267 269 273 273 273 273 272 273 273 273 274 272 271 271 273 274 274 275 277 275
250 252 254 256 256 259 263 264 263 265 267 267 267 272 269 269 268 268 272 274 275 276 274 264 262 256 258 260 267 271 272 273 275 275 277 277 280 278 275 276 276 273 271 272 273 272 274 276 277
251 254 257 260 258 259 261 261 261 263 265 266 267 268 269 269 269 269 272 273 272 269 272 271 265 262 262 263 270 276 275 275 276 276 278 277 279 279 279 277 277 276 274 273 273 274 275 274 273
254 257 259 259 261 263 261 261 263 262 262 263 262 265 267 268 269 270 271 272 271 270 273 275 269 267 267 268 272 276 278 278 278 278 278 278 279 280 281 278 277 277 279 275 273 274 271 271 271
256 259 263 263 262 263 263 262 263 263 262 262 263 265 268 268 267 268 271 272 273 272 274 275 276 276 273 273 273 276 277 280 281 281 281 281 281 281 281 280 276 278 278 275 271 271 270 269 268
260 260 262 265 264 264 264 264 265 264 262 262 264 267 267 266 266 267 271 274 275 276 276 276 275 275 275 273 274 275 276 279 280 280 279 281 284 285 283 282 276 276 277 276 273 270 272 270 267
262 266 266 267 266 266 265 265 265 263 263 264 267 269 268 269 268 268 270 274 277 279 280 280 277 276 275 275 277 277 280 280 278 279 279 281 284 286 285 286 280 278 278 278 276 272 272 270 269
269 273 273 271 269 268 268 264 263 261 262 265 267 269 269 270 269 269 269 272 277 279 279 279 279 278 276 276 277 278 279 279 280 282 284 285 287 290 290 290 286 283 282 281 279 277 277 274 272
272 274 275 273 270 270 270 265 263 263 262 265 267 270 271 271 269 269 270 273 276 278 279 280 280 284 281 280 279 280 281 280 281 283 285 286 288 291 291 291 287 285 283 282 281 283 282 279 275
272 275 282 280 277 274 268 265 266 266 264 266 268 270 272 272 271 271 274 276 278 280 282 283 284 283 281 279 280 279 281 281 280 280 282 286 289 291 290 287 286 288 284 285 283 283 282 281 277
275 282 285 281 278 275 270 270 270 268 267 267 268 269 270 273 275 277 278 280 280 283 285 285 284 284 281 281 282 282 281 281 281 282 282 285 288 291 289 285 288 290 289 286 285 283 281 282 281
278 276 273 275 277 276 277 276 274 273 273 273 268 270 270 272 275 278 279 281 283 285 286 286 286 284 281 280 280 280 278 279 280 281 283 285 287 289 289 288 288 287 289 288 286 285 285 287 285
273 273 273 276 277 276 276 277 274 277 277 274 271 272 272 274 274 276 278 281 284 286 286 285 285 283 282 282 281 279 278 278 279 283 284 285 285 286 288 288 288 288 288 288 287 288 287 287 288
270 273 274 274 274 275 276 278 276 275 277 274 272 272 274 274 275 276 279 281 284 286 286 285 284 283 282 282 281 280 279 277 280 283 285 286 285 285 285 286 286 288 289 289 291 292 291 288 288
273 271 272 270 273 276 276 275 277 275 275 272 270 271 273 273 274 278 281 283 285 287 287 286 285 284 282 283 282 280 279 280 280 281 282 285 285 283 283 283 285 288 288 289 291 292 295 292 289
274 271 271 274 276 277 274 276 273 273 271 273 273 274 274 273 274 278 280 284 285 285 286 284 284 283 282 282 282 283 282 282 282 280 279 281 282 283 283 283 284 285 287 289 291 291 292 293 293
275 274 270 274 279 279 280 279 280 278 276 273 272 273 275 275 277 280 282 283 284 284 282 280 282 281 281 280 280 282 282 283 282 280 279 279 280 281 281 283 285 283 286 289 290 290 290 290 291
276 274 271 276 282 281 284 280 281 279 281 281 277 277 277 276 278 281 283 284 284 283 281 279 279 280 281 280 278 278 279 280 280 278 276 280 281 282 281 283 284 283 285 288 289 289 289 290 290
277 276 275 277 282 281 284 282 278 281 284 287 286 284 280 278 278 280 282 282 283 283 280 279 280 281 281 280 278 278 278 279 280 278 277 279 279 281 281 282 282 284 286 287 288 290 289 290 289
280 277 274 270 264 266 274 277 278 283 284 284 283 282 282 280 280 281 282 281 281 281 280 279 279 280 279 278 278 278 279 280 279 278 277 280 281 283 282 282 284 286 288 288 290 291 291 292 291
279 275 274 274 270 268 269 273 273 276 280 281 280 280 284 282 281 281 281 281 281 281 279 278 278 278 277 278 279 280 279 280 279 278 277 278 281 283 283 283 284 286 288 289 289 290 290 291 290
277 277 276 273 270 267 267 271 273 279 282 283 282 282 284 284 281 280 281 283 282 281 279 279 278 278 278 278 279 280 280 279 279 278 277 278 281 282 281 281 282 284 286 288 287 286 288 289 289
279 276 273 272 271 269 266 268 273 278 283 286 287 287 285 285 285 283 281 283 282 280 279 279 278 278 278 278 279 279 278 278 278 277 278 279 281 282 281 281 283 283 285 286 287 286 287 288 289
275 276 276 274 273 270 272 272 274 277 281 285 285 285 285 284 284 285 283 281 280 279 278 279 279 279 278 278 279 278 278 278 278 279 279 280 281 282 281 282 283 284 285 286 287 288 287 288 288
Height
5854 5854 5855 5857 5858 5858 5857 5858 5858 5859 5860 5860 5861 5861 5862 5863 5865 5867 5865 5864 5865 5865 5866 5866 5866 5867 5867 5867 5868 5868 5868 5868 5868 5868 5868 5868 5868 5868 5868 5869 5869 5869 5869 5869 5869 5869 5869 5869 5868
5854 5854 5856 5857 5857 5857 5857 5857 5858 5859 5859 5860 5860 5861 5862 5862 5863 5864 5863 5864 5864 5865 5865 5865 5865 5866 5866 5866 5867 5867 5867 5867 5867 5867 5867 5867 5867 5867 5867 5868 5868 5868 5868 5868 5868 5867 5867 5867 5866
5853 5854 5856 5856 5856 5856 5857 5857 5857 5858 5858 5859 5860 5861 5861 5862 5862 5862 5862 5863 5863 5863 5864 5864 5864 5865 5865 5865 5865 5866 5866 5866 5866 5866 5866 5866 5866 5866 5866 5866 5866 5866 5866 5866 5866 5866 5865 5865 5864
5853 5854 5855 5856 5855 5856 5856 5856 5857 5857 5858 5858 5859 5860 5860 5861 5861 5861 5861 5862 5862 5862 5862 5862 5863 5863 5863 5864 5864 5864 5865 5865 5865 5865 5865 5865 5865 5865 5865 5865 5865 5864 5864 5864 5864 5864 5863 5862 5861
5852 5853 5854 5854 5854 5855 5855 5855 5856 5856 5857 5857 5858 5858 5859 5860 5860 5860 5860 5860 5860 5860 5860 5860 5860 5861 5861 5862 5862 5863 5863 5863 5863 5863 5863 5863 5864 5864 5863 5863 5863 5863 5863 5862 5862 5862 5861 5860 5858
5852 5852 5853 5853 5853 5854 5854 5854 5855 5855 5855 5856 5857 5857 5857 5858 5858 5859 5859 5859 5859 5858 5858 5857 5857 5858 5859 5860 5861 5861 5861 5861 5861 5861 5862 5862 5862 5862 5862 5862 5861 5861 5861 5860 5860 5860 5859 5858 5856
5851 5851 5851 5851 5852 5852 5853 5853 5854 5854 5854 5855 5855 5856 5856 5856 5857 5857 5857 5857 5857 5856 5856 5854 5854 5855 5857 5858 5859 5859 5859 5859 5859 5860 5860 5860 5860 5860 5860 5860 5859 5859 5859 5859 5858 5858 5858 5857 5855
5849 5850 5850 5850 5850 5851 5852 5852 5852 5852 5853 5854 5854 5854 5854 5855 5855 5855 5855 5855 5855 5855 5855 5854 5853 5854 5855 5856 5857 5857 5858 5858 5858 5858 5858 5858 5858 5858 5858 5857 5857 5857 5856 5856 5856 5856 5855 5855 5854
5847 5849 5848 5848 5849 5849 5850 5850 5851 5851 5851 5852 5852 5853 5853 5853 5853 5853 5854 5854 5854 5854 5854 5853 5853 5853 5854 5855 5855 5855 5856 5856 5856 5856 5856 5856 5856 5856 5855 5855 5855 5854 5854 5854 5854 5854 5853 5852 5852
5845 5846 5846 5847 5847 5847 5848 5848 5849 5849 5849 5850 5850 5851 5851 5851 5851 5851 5852 5852 5852 5852 5852 5852 5852 5852 5852 5853 5853 5854 5854 5854 5854 5854 5854 5854 5854 5853 5853 5853 5852 5852 5851 5851 5851 5851 5850 5850 5850
5843 5844 5844 5844 5844 5845 5845 5846 5846 5846 5847 5847 5848 5849 5849 5849 5849 5850 5850 5850 5850 5850 5850 5850 5850 5850 5851 5851 5851 5852 5852 5852 5852 5852 5852 5851 5851 5851 5850 5850 5849 5849 5849 5848 5848 5848 5847 5847 5847
5841 5842 5842 5842 5842 5842 5843 5843 5843 5844 5845 5845 5846 5846 5847 5847 5848 5848 5848 5848 5848 5848 5848 5848 5848 5848 5849 5849 5849 5849 5849 5849 5849 5849 5849 5849 5849 5848 5848 5847 5847 5846 5846 5846 5845 5845 5844 5844 5844
5839 5839 5839 5840 5839 5840 5840 5840 5841 5841 5842 5843 5843 5844 5844 5845 5845 5846 5846 5846 5846 5846 5846 5846 5846 5846 5846 5846 5847 5847 5847 5847 5847 5846 5846 5846 5846 5845 5845 5844 5843 5843 5843 5842 5842 5842 5841 5841 5841
5837 5837 5837 5837 5837 5837 5838 5838 5838 5839 5839 5840 5841 5841 5842 5842 5843 5843 5844 5844 5844 5844 5844 5844 5844 5844 5844 5844 5844 5844 5844 5844 5844 5844 5843 5843 5843 5843 5842 5841 5840 5840 5839 5839 5839 5838 5838 5838 5837
5834 5835 5835 5835 5835 5835 5836 5836 5836 5836 5837 5838 5838 5839 5839 5840 5840 5841 5841 5841 5841 5841 5841 5841 5841 5841 5841 5841 5841 5841 5842 5841 5841 5841 5841 5840 5840 5840 5839 5838 5837 5837 5836 5836 5835 5835 5835 5835 5834
5832 5833 5833 5833 5833 5833 5835 5834 5834 5834 5835 5835 5836 5836 5837 5837 5838 5838 5838 5839 5839 5839 5839 5838 5838 5838 5838 5838 5838 5838 5839 5839 5838 5838 5838 5837 5837 5836 5836 5835 5834 5834 5833 5832 5832 5832 5831 5831 5831
5831 5831 5831 5832 5831 5831 5832 5832 5832 5832 5832 5833 5834 5834 5834 5835 5835 5835 5836 5836 5836 5836 5836 5835 5835 5835 5835 5835 5835 5835 5835 5835 5835 5835 5834 5834 5834 5833 5832 5832 5831 5831 5830 5829 5829 5829 5828 5828 5827
5830 5830 5830 5829 5829 5829 5829 5830 5830 5830 5830 5830 5831 5831 5832 5832 5833 5833 5833 5833 5833 5833 5833 5833 5833 5832 5832 5832 5832 5832 5832 5832 5832 5831 5831 5831 5830 5829 5829 5828 5828 5828 5827 5826 5826 5825 5824 5824 5824
5827 5828 5828 5827 5827 5827 5827 5828 5828 5828 5828 5828 5828 5828 5829 5830 5830 5830 5830 5830 5830 5830 5830 5830 5829 5829 5829 5829 5828 5828 5828 5828 5828 5828 5827 5827 5826 5826 5825 5825 5825 5824 5824 5823 5822 5822 5821 5820 5820
5825 5825 5825 5825 5825 5825 5825 5825 5825 5825 5826 5826 5826 5826 5826 5827 5827 5827 5827 5827 5827 5827 5827 5826 5826 5826 5825 5825 5825 5825 5824 5824 5824 5824 5823 5823 5822 5822 5822 5821 5821 5820 5820 5820 5819 5818 5818 5817 5816
5822 5822 5822 5822 5822 5822 5822 5823 5823 5823 5823 5823 5824 5824 5824 5824 5824 5824 5824 5824 5824 5824 5823 5823 5822 5822 5822 5822 5821 5821 5821 5821 5820 5820 5820 5819 5819 5819 5818 5818 5817 5817 5816 5816 5815 5815 5814 5813 5813
5819 5820 5820 5819 5819 5819 5820 5820 5821 5820 5820 5820 5821 5821 5821 5821 5821 5821 5821 5821 5821 5820 5819 5819 5819 5818 5818 5818 5817 5817 5816 5816 5816 5816 5816 5815 5815 5815 5814 5814 5814 5813 5813 5812 5811 5811 5810 5810 5809
5816 5816 5817 5816 5816 5816 5817 5817 5818 5817 5817 5818 5818 5818 5818 5818 5818 5818 5818 5817 5817 5816 5816 5815 5815 5814 5814 5814 5813 5813 5812 5812 5811 5811 5811 5811 5811 5810 5810 5810 5809 5809 5808 5808 5807 5807 5806 5805 5805
5813 5814 5814 5813 5813 5813 5815 5815 5814 5814 5814 5815 5815 5815 5815 5815 5815 5814 5814 5813 5813 5812 5811 5811 5810 5810 5810 5809 5808 5808 5808 5807 5807 5807 5807 5807 5806 5806 5805 5805 5805 5804 5804 5803 5803 5802 5801 5801 5800
5811 5811 5811 5810 5811 5812 5812 5812 5812 5811 5812 5812 5812 5812 5812 5811 5811 5810 5810 5809 5809 5808 5807 5806 5806 5805 5805 5804 5804 5804 5803 5803 5802 5802 5802 5802 5802 5801 5801 5800 5800 5799 5799 5798 5798 5797 5796 5795 5795
5807 5808 5809 5809 5809 5809 5810 5809 5809 5808 5808 5808 5808 5808 5808 5807 5807 5806 5805 5805 5804 5803 5803 5802 5801 5801 5800 5800 5799 5799 5799 5798 5797 5797 5797 5797 5797 5796 5796 5795 5795 5794 5793 5793 5792 5791 5791 5790 5789
5804 5804 5805 5806 5805 5806 5806 5806 5805 5804 5804 5804 5804 5804 5804 5803 5802 5801 5801 5800 5799 5799 5798 5797 5797 5796 5795 5795 5794 5794 5794 5793 5793 5792 5792 5792 5792 5791 5791 5790 5790 5789 5788 5787 5786 5786 5785 5784 5783
5802 5802 5802 5802 5802 5802 5803 5802 5801 5800 5800 5800 5800 5799 5799 5798 5797 5796 5795 5795 5794 5794 5793 5793 5792 5791 5790 5790 5789 5789 5788 5788 5787 5787 5787 5786 5786 5785 5785 5785 5784 5783 5783 5782 5781 5780 5779 5778 5777
5799 5798 5798 5798 5798 5799 5799 5800 5797 5797 5796 5795 5795 5794 5794 5793 5792 5791 5790 5790 5789 5788 5788 5787 5786 5786 5785 5784 5784 5783 5783 5782 5782 5782 5781 5780 5780 5779 5779 5778 5778 5777 5777 5776 5775 5774 5773 5772 5771
5794 5794 5794 5795 5794 5794 5794 5796 5793 5792 5791 5791 5790 5789 5788 5788 5787 5786 5785 5784 5783 5783 5782 5781 5781 5780 5779 5779 5778 5777 5777 5776 5776 5775 5775 5774 5774 5773 5772 5772 5771 5771 5770 5769 5768 5768 5767 5766 5764